Home   Weather   Swakopmund   Past weeks

Flag for Namibia Past Weather in Swakopmund, Namibia — Yesterday and Last 2 Weeks

Now
70 °F

Passing clouds.


Feels Like: 70 °F
Forecast: 69 / 74 °F
Wind: 7 mph from North

Location: Walvis Bay

Current Time: Jan 22, 2017 at 12:10:22 pm

Latest Report: Jan 22, 2017 at 10:00 am


Visibility: N/A

Pressure: 29.89 "Hg

Humidity: 73%

Dew Point: 61 °F

Location of SwakopmundLocation

Past Weather in Swakopmund — Graph

°F

Swakopmund Temperature Yesterday

Maximum temperature yesterday: 73 °F (at 1:00 pm)
Minimum temperature yesterday: 63 °F (at 12:00 am)
Average temperature yesterday: 66 °F

High & Low Weather Summary for the Past Weeks

 TemperatureHumidityPressure
High84 °F (Jan 16, 1:00 pm)94% (Jan 12, 8:00 am)30.09 "Hg (Jan 12, 8:00 am)
Low63 °F (Jan 14, 9:00 am)27% (Jan 16, 1:00 pm)29.71 "Hg (Jan 17, 4:00 pm)
Average69 °F73%29.89 "Hg
* Reported Jan 7 10:00 am — Jan 22 10:00 am, Swakopmund, Weather by CustomWeather, © 2017

Note: Actual official high and low records may vary slightly from our data, if they occured in-between our weather recording intervals... More about our weather records

Advertising

Swakopmund Weather History for the Previous 24 Hours

Scroll right to see more
 ConditionsComfort  
Time TempWeatherWind HumidityBarometerVisibility
10:00 am
Sun, Jan 22
70 °FPassing clouds.7 mph73%29.89 "HgN/A
9:00 am68 °FPartly sunny.10 mph83%29.89 "HgN/A
8:00 am64 °FLow clouds.No wind88%29.89 "HgN/A
7:00 am63 °FMild.5 mph83%29.92 "HgN/A
6:00 am63 °FMild.6 mph83%29.89 "HgN/A
5:00 am64 °FMild.5 mph78%29.89 "HgN/A
4:00 am64 °FMild.3 mph78%29.89 "HgN/A
3:00 am64 °FMild.3 mph73%29.89 "HgN/A
2:00 am64 °FMild.6 mph78%29.92 "HgN/A
1:00 am64 °FMild.1 mph78%29.92 "HgN/A
12:00 am64 °FMild.5 mph78%29.95 "HgN/A
11:00 pm
Sat, Jan 21
64 °FMild.1 mph78%29.95 "HgN/A
10:00 pm64 °FMild.6 mph73%29.95 "HgN/A
9:00 pm64 °FMild.9 mph73%29.92 "HgN/A
7:00 pm72 °FMild.3 mph61%29.89 "HgN/A
5:00 pm73 °FMild.10 mph57%29.86 "HgN/A
3:00 pm73 °FMild.8 mph57%29.86 "HgN/A
1:00 pm73 °FSunny.9 mph65%29.86 "Hg10 mi
Weather by CustomWeather, © 2017

See weather overviewHow to use our weather pages